Weather History for KCSQ - June, 2013

Change the Weather History Date:

Saturday, June 29, 2013

  Actual Average Record
Temperature  
Mean Temperature 66 °F -  
Max Temperature 71 °F 85 °F 96 °F (1988)
Min Temperature 60 °F 63 °F 49 °F (1950)
Growing Degree Days 16 (Base 50)    
Moisture  
Dew Point 56 °F    
Average Humidity 73    
Maximum Humidity 82    
Minimum Humidity 60    
Precipitation  
Precipitation 0.00 in - - ()
Sea Level Pressure  
Sea Level Pressure 29.86 in    
Wind  
Wind Speed 12 mph (NW)    
Max Wind Speed 28 mph    
Max Gust Speed 37 mph    
Visibility 10 miles    
Events      
Averages and records for this station are not official NWS values.
T = Trace of Precipitation, MM = Missing Value Source: NWS Daily Summary

Daily Weather History Graph

Daily Weather History Graph

Search for Another Location

Airport or City:

Trip Planner

Search our weather history database for the weather conditions in past years. The results will help you decide how hot, cold, wet, or windy it might be!

Date:

Astronomy

Jun. 29, 2013 Rise Set
Actual Time 5:48 AM CDT 8:53 PM CDT
Civil Twilight 5:14 AM CDT 9:27 PM CDT
Nautical Twilight 4:31 AM CDT 10:09 PM CDT
Astronomical Twilight 3:41 AM CDT 11:00 PM CDT
Moon 12:19 AM CDT (6/29) 1:04 PM CDT (6/29)
Length of Visible Light 16h 12m
Length of Day
15h 05m
Waning Gibbous, 55% of the Moon is Illuminated
Jun 29
Waning Gibbous
Jun 29
Last Quarter
Jul 8
New
Jul 15
First Quarter
Jul 22
Full

Hourly Weather History & Observations

Time (CDT) Temp. Dew Point Humidity Pressure Visibility Wind Dir Wind Speed Gust Speed Precip Events Conditions
12:15 AM 68.0 °F 53.6 °F 60% 29.86 in 10.0 mi NW 12.7 mph - N/A   Clear
12:35 AM 68.0 °F 55.4 °F 64% 29.86 in 10.0 mi NW 11.5 mph - N/A   Clear
12:55 AM 66.2 °F 55.4 °F 68% 29.86 in 10.0 mi NW 9.2 mph - N/A   Clear
1:15 AM 66.2 °F 55.4 °F 68% 29.85 in 10.0 mi NW 11.5 mph - N/A   Clear
1:35 AM 66.2 °F 55.4 °F 68% 29.85 in 10.0 mi NW 11.5 mph - N/A   Clear
1:55 AM 66.2 °F 55.4 °F 68% 29.85 in 10.0 mi NW 11.5 mph - N/A   Clear
2:15 AM 66.2 °F 55.4 °F 68% 29.84 in 10.0 mi NW 10.4 mph - N/A   Clear
2:35 AM 64.4 °F 55.4 °F 73% 29.84 in 10.0 mi NW 10.4 mph - N/A   Clear
2:55 AM 64.4 °F 55.4 °F 73% 29.84 in 10.0 mi NW 10.4 mph - N/A   Clear
3:15 AM 64.4 °F 55.4 °F 73% 29.84 in 10.0 mi WNW 10.4 mph - N/A   Clear
3:35 AM 62.6 °F 55.4 °F 77% 29.84 in 10.0 mi WNW 10.4 mph - N/A   Clear
3:55 AM 62.6 °F 55.4 °F 77% 29.84 in 10.0 mi WNW 10.4 mph - N/A   Clear
4:15 AM 62.6 °F 55.4 °F 77% 29.84 in 10.0 mi WNW 10.4 mph - N/A   Clear
4:35 AM 62.6 °F 55.4 °F 77% 29.84 in 10.0 mi WNW 10.4 mph - N/A   Clear
4:55 AM 62.6 °F 55.4 °F 77% 29.84 in 10.0 mi WNW 9.2 mph - N/A   Clear
5:15 AM 60.8 °F 55.4 °F 82% 29.84 in 10.0 mi NW 9.2 mph - N/A   Clear
5:35 AM 60.8 °F 55.4 °F 82% 29.85 in 10.0 mi NW 9.2 mph - N/A   Clear
5:55 AM 62.6 °F 55.4 °F 77% 29.85 in 10.0 mi NW 10.4 mph - N/A   Clear
6:15 AM 62.6 °F 55.4 °F 77% 29.85 in 10.0 mi NW 11.5 mph - N/A   Clear
6:35 AM 62.6 °F 57.2 °F 82% 29.85 in 10.0 mi NW 11.5 mph - N/A   Clear
6:55 AM 64.4 °F 57.2 °F 77% 29.85 in 10.0 mi NW 12.7 mph - N/A   Clear
7:15 AM 66.2 °F 57.2 °F 73% 29.85 in 10.0 mi NW 15.0 mph - N/A   Clear
7:35 AM 66.2 °F 57.2 °F 73% 29.85 in 10.0 mi NW 17.3 mph - N/A   Clear
7:55 AM 68.0 °F 59.0 °F 73% 29.85 in 10.0 mi NW 15.0 mph - N/A   Clear
8:15 AM 68.0 °F 59.0 °F 73% 29.85 in 10.0 mi NW 16.1 mph 23.0 mph N/A   Clear
8:35 AM 69.8 °F 59.0 °F 68% 29.85 in 10.0 mi NW 15.0 mph 21.9 mph N/A   Clear
8:55 AM 69.8 °F 59.0 °F 68% 29.85 in 10.0 mi NW 19.6 mph 26.5 mph N/A   Clear
1:55 PM 71.6 °F 59.0 °F 64% 29.84 in 10.0 mi NNW 27.6 mph 36.8 mph N/A   Mostly Cloudy
4:15 PM 71.6 °F 60.8 °F 69% 29.85 in 10.0 mi North 21.9 mph 29.9 mph N/A   Mostly Cloudy
9:15 PM 66.2 °F 55.4 °F 68% 29.90 in 10.0 mi NNE 9.2 mph - N/A   Partly Cloudy
9:55 PM 64.4 °F 55.4 °F 73% 29.92 in 10.0 mi NNE 9.2 mph - N/A   Partly Cloudy
10:15 PM 64.4 °F 55.4 °F 73% 29.93 in 10.0 mi NNE 8.1 mph - N/A   Clear
10:35 PM 64.4 °F 55.4 °F 73% 29.93 in 10.0 mi NNE 9.2 mph - N/A   Mostly Cloudy
10:55 PM 64.4 °F 55.4 °F 73% 29.93 in 10.0 mi North 9.2 mph - N/A   Scattered Clouds
11:15 PM 64.4 °F 55.4 °F 73% 29.93 in 10.0 mi North 8.1 mph - N/A   Scattered Clouds
11:35 PM 64.4 °F 55.4 °F 73% 29.93 in 10.0 mi North 8.1 mph - N/A   Overcast
11:55 PM 64.4 °F 55.4 °F 73% 29.93 in 10.0 mi North 8.1 mph - N/A   Overcast